x

New Dungeness - 17 Nm Ne Of Port Angeles, Wa (46088) Wave Buoy

7:50 - Sat 23rd May 2015 All times are PDT. -7 hours from GMT.

  • Sig Wave height 1.0ft
  • Swell Direction
  • Peak Period 2s
  • Average Period 3s
  • Wind
    16mph
  • Sea Temp 51°f
  • Aire Temp 51°f
  • Sea Pressure 1021.3mb
  • New Dungeness - 17 Nm Ne Of Port Angeles, Wa
  • New Dungeness - 17 Nm Ne Of Port Angeles, Wa

More Historic Weather Station data

Upgrade to MSW Pro to gain access to the past 30 days of data for over 8000 Wavebouys and Weather Stations around the globe.

Join Pro

Comparision Forecast

View Surf forecast
   
sáb 05/23 7:50 1ft 2s 3s 16
mph
1021.3mb 51f 51f
7:20 1.3ft 3s 3s 13 16 mph 1021.1mb 51f 51f
6:50 1.3ft 3s 3s 13 16 mph 1020.9mb 51f 52f
6:20 1.6ft 3s 3s 11 16 mph 1021mb 51f 52f
5:50 1ft 3s 3s 11 13 mph 1021.2mb 51f 52f
5:20 1ft 3s 3s 11 13 mph 1021.4mb 51f 52f
4:50 1ft 3s 3s 9 13 mph 1021.7mb 51f 53f
4:20 0.7ft  -  4s 11 13 mph 1021.6mb 51f 53f
3:50 0.7ft  -  4s 9
mph
1022.1mb 51f 52f
3:20 0.7ft  -  4s 7
mph
1022.3mb 51f 52f
2:50 0.7ft  -  3s 7 9 mph 1022.7mb 51f 52f
2:20 0.7ft  -  4s 7 9 mph 1022.6mb 51f 52f
1:50 0.7ft  -  4s 7
mph
1022.4mb 51f 52f
1:20 0.7ft  -  4s 7
mph
1022.2mb 51f 53f
12:50 0.7ft  -  4s 7
mph
1022.4mb 51f 53f
12:20 0.7ft  -  4s 7 9 mph 1022.4mb 50f 52f
11:50 0.7ft  -  3s 9 11 mph 1022mb 50f 52f
11:20 0.7ft  -  3s 11
mph
1021.7mb 50f 51f
10:50 0.7ft  -  3s 9 11 mph 1021.6mb 50f 51f
10:20 0.7ft  -  3s 11 13 mph 1021.5mb 50f 51f
9:50 1ft 5s 3s 9 11 mph 1021.4mb 50f 51f
9:20 0.7ft  -  3s 9 11 mph 1021.1mb 50f 51f
8:50 0.7ft  -  3s 9
mph
1020.8mb 50f 51f
8:20 1ft 3s 3s 9 11 mph 1020.7mb 50f 50f
7:50 1ft 3s 3s 9 11 mph 1020.5mb 50f 51f
7:20 1ft 3s 3s 9 11 mph 1020.4mb 50f 51f
6:50 1ft 3s 3s 9 11 mph 1020.2mb 50f 51f
6:20 1ft 3s 3s 11
mph
1020mb 50f 51f
5:50 1ft 3s 3s 11 13 mph 1019.7mb 50f 51f
5:20 0.7ft  -  3s 11 13 mph 1019.5mb 50f 51f
4:50 0.7ft  -  3s 11 13 mph 1019.4mb 50f 51f
4:20 1ft 3s 3s 11 13 mph 1019.4mb 49f 51f
3:50 1ft 3s 3s 9 11 mph 1019.2mb 49f 51f
3:20 0.7ft  -  3s 11
mph
1019mb 50f 51f
2:50 1ft 4s 4s 9 11 mph 1018.9mb 49f 51f
2:20 1ft 3s 4s 9 13 mph 1018.7mb 49f 51f
1:50 1ft 4s 4s 11 13 mph 1018.4mb 49f 51f
1:20 1ft 3s 3s 11 13 mph 1018.4mb 49f 51f
12:50 1.3ft 8s 4s 13 16 mph 1018.1mb 49f 51f
12:20 1ft 3s 4s 13 16 mph 1017.8mb 49f 51f
vie 05/22 11:50 1ft 2s 3s 13 16 mph 1017.6mb 49f 51f
11:20 1ft 5s 3s 11 13 mph 1017.5mb 49f 51f
10:50 1ft 3s 3s 13
mph
1017.4mb 49f 51f
10:20 1ft 8s  -  13 16 mph 1016.8mb 49f 51f
9:50 1ft 2s 3s 13 16 mph 1016.6mb 49f 51f
9:20 1ft 2s 3s 16
mph
1016.4mb 50f 51f
8:50 1ft 2s 3s 13 16 mph 1016.1mb 50f 52f
8:20 1ft 8s 3s 16 20 mph 1015.6mb 50f 52f
7:50 1ft 3s 3s 16 18 mph 1015.6mb 50f 52f
7:20 1.3ft 4s 3s 11 16 mph 1015.8mb 50f 52f
6:50 1.3ft 3s 3s 13 16 mph 1015.6mb 50f 52f
6:20 1.3ft 3s 3s 13 18 mph 1015.5mb 50f 52f
5:50 1.6ft 3s 3s 11 13 mph 1015.7mb 50f 52f
5:20 2ft 3s 3s 13 16 mph 1015.6mb 50f 52f
4:50 1.6ft 4s 3s 13 16 mph 1015.5mb 50f 52f
4:20 2ft 4s 3s 13 16 mph 1015.4mb 50f 51f
3:50 1.6ft 4s 3s 13 16 mph 1015.4mb 50f 51f
3:20 2ft 4s 4s 13 16 mph 1015.2mb 50f 51f
2:50 1.6ft 5s 4s 13 16 mph 1015.1mb 50f 51f
2:20 1.6ft 5s 4s 16 18 mph 1015.2mb 50f 51f
1:50 1.6ft 5s 4s 16 18 mph 1015.5mb 50f 51f
1:20 1.3ft 5s 4s 16 18 mph 1015.5mb 50f 51f
12:50 1.3ft 5s 4s 13 16 mph 1015.6mb 50f 51f
12:20 1.3ft 5s 4s 11 13 mph 1015.8mb 50f 51f
11:50 1.3ft 5s 4s 13 16 mph 1015.6mb 50f 51f
11:20 1.3ft 4s 4s 11 16 mph 1015.4mb 50f 51f
10:50 1.3ft 4s 4s 11 13 mph 1015.2mb 49f 50f
10:20 1.6ft 4s 4s 13 16 mph 1014.8mb 49f 50f
9:50 1.6ft 4s 4s 16 20 mph 1014.6mb 49f 50f
9:20 2ft 3s 4s 16 20 mph 1014.2mb 49f 50f
8:50 2ft 4s 4s 18 22 mph 1013.9mb 49f 50f
8:20 2ft 4s 4s 18 20 mph 1013.6mb 49f 50f
7:50 2ft 4s 4s 18 20 mph 1013.3mb 49f 50f
7:20 2ft 4s 4s 18 20 mph 1013mb 49f 50f
6:50 2ft 5s 4s 16 20 mph 1013mb 49f 50f
6:20 2.5ft 4s 4s 13 25 mph 1012.7mb 49f 50f
5:50 2.5ft 4s 4s 16 18 mph 1012.7mb 49f 50f
5:20 2.5ft 4s 4s 20 25 mph 1012.2mb 49f 50f
4:50 3ft 4s 4s 25 29 mph 1011.9mb 49f 50f
4:20 2.5ft 4s 4s 22 29 mph 1011.8mb 49f 50f
3:50 2.5ft 5s 4s 22 27 mph 1011.9mb 49f 50f
3:20 2.5ft 4s 4s 20 25 mph 1011.5mb 49f 50f
2:50 2.5ft 5s 4s 22 25 mph 1011.5mb 49f 50f
2:20 2.5ft 5s 4s 20 22 mph 1011.6mb 49f 49f
1:50 2.5ft 5s 4s 18 20 mph 1011.7mb 49f 50f
1:20 3ft 5s 4s 20 25 mph 1010.9mb 49f 50f
12:50 2.5ft 5s 4s 25 29 mph 1010.6mb 49f 50f
12:20 3ft 5s 4s 22 27 mph 1010.5mb 49f 50f
jue 05/21 11:50 2.5ft 4s 4s 20 25 mph 1010.6mb 49f 50f
11:20 2.5ft 4s 4s 22 25 mph 1010.3mb 49f 50f
10:50 2.5ft 4s 4s 22 27 mph 1010.4mb 49f 50f
10:20 2.5ft 4s 3s 25 29 mph 1009.9mb 49f 50f
9:50 2.5ft 3s 3s 25 27 mph 1009.8mb 49f 50f
9:20 2.5ft 3s 3s 22 27 mph 1009.7mb 49f 51f
8:50 2.5ft 3s 3s 25 27 mph 1009.4mb 49f 52f
8:20 2.5ft 3s 3s 25 29 mph 1008.9mb 49f 51f
7:50 2.5ft 3s 3s 22 27 mph 1009mb 50f 51f
7:20 2.5ft 3s 3s 22 25 mph 1009.5mb 50f 51f
6:50 2.5ft 3s 3s 22 25 mph 1009.4mb 50f 51f
6:20 2.5ft 3s 3s 20 25 mph 1009.4mb 50f 51f
5:50 2.5ft 3s 3s 20 22 mph 1009.7mb 50f 50f
5:20 3ft 4s 3s 22 27 mph 1009.7mb 50f 50f
4:50 3ft 4s 4s 18 22 mph 1009.7mb 50f 50f
4:20 2.5ft 4s 4s 18 20 mph 1009.9mb 50f 50f
3:50 2.5ft 4s 3s 18 22 mph 1010.2mb 50f 50f
3:20 2ft 4s 3s 16 18 mph 1010.5mb 50f 50f
2:50 1.6ft 4s 4s 13 16 mph 1010.9mb 50f 50f
2:20 1.6ft 9s 4s 11 13 mph 1011.2mb 50f 50f
1:50 1.3ft 4s 4s 11 13 mph 1011.5mb 50f 50f
1:20 1.3ft 4s 4s 9 11 mph 1011.5mb 50f 50f
12:50 1.3ft 5s 4s 9 11 mph 1011.8mb 50f 49f
12:20 1ft 5s 4s 7 11 mph 1012mb 50f 49f
11:50 1ft 5s 4s 9 11 mph 1012mb 50f 49f
11:20 1ft 5s 4s 9 11 mph 1012mb 50f 49f
10:50 1.3ft 5s 4s 11
mph
1012.1mb 49f 49f
10:20 1.3ft 4s 4s 11 13 mph 1012.2mb 49f 48f
9:50 1.3ft 4s 4s 11 13 mph 1012.2mb 49f 48f
9:20 1.3ft 4s 4s 11 13 mph 1012.3mb 49f 48f
8:50 1.3ft 4s 4s 11 13 mph 1012.2mb 49f 48f
8:20 1.6ft 4s 4s 11 13 mph 1011.9mb 49f 48f
7:50 1.6ft 4s 3s 13 16 mph 1011.8mb 49f 48f
7:20 1.6ft 4s 3s 16 18 mph 1011.9mb 49f 48f
6:50 1.6ft 4s 3s 16 18 mph 1011.7mb 49f 48f
6:20 1.6ft 4s 3s 18 20 mph 1011.7mb 49f 48f
5:50 2ft 4s 3s 16 20 mph 1011.7mb 49f 48f
5:20 2ft 4s 3s 18 20 mph 1011.8mb 49f 48f
4:50 2.5ft 4s 3s 18 20 mph 1011.6mb 49f 48f
4:20 2.5ft 4s 4s 18 22 mph 1011.6mb 49f 48f
3:50 2.5ft 4s 3s 18 20 mph 1011.5mb 49f 48f
3:20 2.5ft 4s 4s 16 20 mph 1011.5mb 49f 48f
2:50 2.5ft 4s 4s 16 18 mph 1011.4mb 49f 48f
2:20 2ft 5s 4s 16 18 mph 1011.3mb 49f 49f
1:50 2ft 4s 4s 13 18 mph 1011.2mb 49f 49f
1:20 2ft 4s 4s 18 22 mph 1010.9mb 49f 49f
12:50 2ft 4s 4s 18 20 mph 1011mb 49f 49f
12:20 2ft 4s 4s 20 22 mph 1011.1mb 49f 49f
mié 05/20 11:50 2ft 4s 3s 20 22 mph 1011.1mb 49f 49f
11:20 2.5ft 4s 3s 18 22 mph 1011.2mb 49f 49f
10:50 2ft 3s 3s 18 22 mph 1011.3mb 49f 49f
10:20 1.6ft 3s 3s 18 22 mph 1011.3mb 49f 49f
9:20 1.6ft 3s 3s 18 20 mph 1011.2mb 49f 50f
8:50 2ft 3s 3s 18 20 mph 1011.1mb 49f 50f
8:20 2ft 3s 3s 20 22 mph 1010.8mb 49f 49f
7:50 2ft 3s 3s 18 22 mph 1011mb 50f 49f
7:20 1.6ft 3s 3s 20 22 mph 1011mb 50f 50f
6:50 1.3ft 3s 3s 18 20 mph 1011.3mb 50f 50f
6:20 1.3ft 3s 3s 16 18 mph 1011.7mb 50f 50f
5:50 1ft 3s 3s 13 16 mph 1012mb 50f 50f
5:20 1.3ft 3s 3s 16 18 mph 1012.2mb 50f 50f
4:50 1.3ft 3s 3s 13 16 mph 1012.4mb 50f 50f
4:20 1.6ft 5s 3s 11 13 mph 1012.9mb 50f 50f
3:50 1.6ft 6s 4s 11 13 mph 1013.4mb 50f 50f
3:20 1.6ft 3s 4s 9 11 mph 1014mb 50f 49f
2:50 1.6ft 3s 4s 9 11 mph 1014.4mb 51f 49f
2:20 1.3ft 4s 4s 9
mph
1014.8mb 50f 49f
1:50 1.3ft 4s 4s 9
mph
1015.2mb 50f 49f
1:20 1.3ft 4s 4s 9 11 mph 1015.5mb 50f 49f
12:50 1.3ft 4s 4s 9
mph
1016mb 50f 48f
12:20 1.3ft 5s 4s 9
mph
1016.4mb 50f 48f
11:50 1ft 5s 4s 9
mph
1016.6mb 50f 48f
11:20 1ft 5s 4s 9 11 mph 1016.6mb 50f 48f
10:50 1ft 5s 4s 9 11 mph 1016.6mb 49f 49f
10:20 1ft 5s 4s 4 7 mph 1016.7mb 49f 49f
9:50 1ft 5s 4s 9 11 mph 1016.7mb 49f 48f
9:20 1.3ft 4s 4s 13 16 mph 1016.7mb 49f 48f
8:50 1.6ft 4s 4s 13 18 mph 1016.5mb 49f 48f
8:20 1.6ft 4s 4s 16 18 mph 1016.5mb 49f 48f
7:50 1.6ft 4s 3s 20 25 mph 1016.3mb 49f 48f
7:20 1.6ft 4s 3s 18 22 mph 1016.6mb 49f 48f
6:50 2ft 4s 3s 20 22 mph 1016.5mb 49f 49f
6:20 1.6ft 4s 3s 20 25 mph 1016.3mb 49f 49f
5:50 1.6ft 4s 3s 20 22 mph 1016.3mb 49f 49f
5:20 1.6ft 4s 3s 20 22 mph 1016.3mb 49f 49f
4:50 1.6ft 4s 3s 20 22 mph 1016.3mb 49f 49f
4:20 2ft 4s 3s 20 22 mph 1016.3mb 49f 49f